Location: Wiesbaden
(50.0830°N, 8.2500°E)
Time: 20:44:56
(UTC+02:00)

ISS - Pass Details

Date: 18 July 2019
Orbit: 409 x 418 km, 51.6° (Epoch: 20 July)

Event Time Altitude Azimuth Distance (km) Brightness Sun altitude
Rises 23:01:54 0° 235° (SW) 2,347 0.1 -11.5°
Reaches altitude 10° 23:04:01 10° 230° (SW) 1,485 -1.0 -11.7°
Maximum altitude 23:07:15 51° 154° (SSE) 531 -3.7 -12.0°
Drops below altitude 10° 23:10:30 10° 78° (ENE) 1,486 -1.2 -12.3°
Sets 23:12:37 0° 73° (ENE) 2,349 -0.1 -12.4°
